Regional Weather Roundup
Issued by NWS

Home | Current Version | Previous Version | Graphics & Text | Print | Product List | Glossary Off
Versions: 1 2 3 4 5 6 7 8 9 10 11 12 13 14 15 16 17 18 19 20 21 22 23 24 25 26 27 28 29 30 31 32 33 34 35 36 37 38 39 40 41 42 43 44 45 46 47 48 49 50

000
ASUS43 KTOP 031359
RWRKS

WEATHER ROUNDUP FOR KANSAS
NATIONAL WEATHER SERVICE GOODLAND KS
900 AM CDT TUE MAY 03 2016

NOTE:  "FAIR" INDICATES FEW OR NO CLOUDS BELOW 12,000 FEET WITH NO
SIGNIFICANT WEATHER AND/OR OBSTRUCTIONS TO VISIBILITY.

KSZ001>006-013>018-027>032-041>047-031500-
NORTHWEST KANSAS

CITY           SKY/WX    TMP DP  RH WIND       PRES   REMARKS
GOODLAND       MOSUNNY   49  41  74 NW10      30.08S
HAYS           MOSUNNY   55  39  54 N7        30.06R
HILL CITY      SUNNY     54  42  64 VRB5      30.07R
RUSSELL        MOSUNNY   55  42  61 N8        30.03S
$$

KSZ061>065-074>080-084>089-031500-
SOUTHWEST KANSAS

CITY           SKY/WX    TMP DP  RH WIND       PRES   REMARKS
DODGE CITY     CLOUDY    50  39  66 CALM      30.07R
ELKHART          N/A     56  36  47 NW12        N/A
GARDEN CITY    CLOUDY    47  39  74 W8        30.06R
GREAT BEND     MOSUNNY   55  43  62 CALM      30.05F
LIBERAL        CLOUDY    52  43  71 W8        30.08R
$$

KSZ066>073-081>083-090>101-031500-
SOUTHEAST KANSAS

CITY           SKY/WX    TMP DP  RH WIND       PRES   REMARKS
CHANUTE        SUNNY     56  48  74 CALM      30.11R
COFFEYVILLE    SUNNY     52  49  89 CALM      30.11R
HUTCHINSON     SUNNY     52  43  71 SE3       30.08R
MEDICINE LODGE   N/A     50  43  77 CALM      30.07S
NEWTON         SUNNY     54  43  66 SW6       30.10R
PARSONS        SUNNY     56  50  80 CALM      30.12R
WICHITA INTL   MOSUNNY   53  45  74 SW6       30.08R
WICHITA JABRA  SUNNY     53  46  77 S7        30.08S
WINFIELD       SUNNY     55  48  77 S5        30.15R
$$

KSZ007>012-019>026-033>040-048>060-102>105-031500-
NORTHEAST KANSAS

CITY           SKY/WX    TMP DP  RH WIND       PRES   REMARKS
CONCORDIA      SUNNY     53  44  71 VRB3      30.05S
EMPORIA        SUNNY     56  47  71 VRB3      30.09S
LAWRENCE       SUNNY     51  48  89 NW7       30.10R FOG
MANHATTAN      MOSUNNY   54  45  71 CALM      30.08S
OLATHE IND     SUNNY     54  46  74 W7        30.10R
OLATHE EXE     SUNNY     55  44  66 NW5       30.09R
SALINA         SUNNY     52  46  80 S9        30.06S
TOPEKA BILLARD SUNNY     52  46  80 CALM      30.10R
TOPEKA FORBES  SUNNY     56  48  74 VRB3      30.10R
$$




USA.gov is the U.S. government's official web portal to all federal, state and local government web resources and services.